weather.gov     
National Weather Service

Regional Weather Roundup
NWS Homepage
This page is being discontinued on March 12, 2014.
The same data is available at this site. Please update your bookmarks.
Thank you, and we apologize for the inconvenience.
Please send an email to SR-SRH.Webmaster@noaa.gov with any concerns.


Current Version
Previous Version:    01  02  03  04  05  06  07  08  09  10  11  12  13  14  15  16  17  18  19  20  21  22  23  24  25  26  
[Printable]
643
ASUS46 KPQR 240810
RWROR

OREGON REGIONAL WEATHER ROUNDUP
NATIONAL WEATHER SERVICE PORTLAND OR
100 AM PDT THU JUL 24 2014

NOTE: "FAIR" INDICATES FEW OR NO CLOUDS BELOW 12,000 FEET WITH
NO SIGNIFICANT WEATHER AND/OR OBSTRUCTIONS TO VISIBILITY.

ORZ001>013-240900-
NORTHWEST OREGON


CITY           SKY/WX    TMP DP  RH WIND       PRES   REMARKS
ASTORIA        LGT RAIN  57  54  89 S14G30    30.06F
NEWPORT        CLOUDY    55  54  94 S15       30.22S
PORTLAND       MOCLDY    60  52  74 S12       30.16R
VANCOUVER WA   CLOUDY    60  50  69 SW9       30.15S
SCAPPOOSE      CLOUDY    58  52  80 S6        30.13S
HILLSBORO      CLOUDY    59  50  72 S12       30.14S
AURORA         CLOUDY    58  52  80 S12       30.18R
MCMINNVILLE    MOCLDY    58  52  80 S10       30.17R
SALEM          MOCLDY    58  51  78 S8        30.18R
CORVALLIS      CLOUDY    55  52  88 S7        30.21S
EUGENE         MOCLDY    52  48  86 S5        30.23R
$$

ORZ021-028-240900-
SOUTHWEST OREGON


CITY           SKY/WX    TMP DP  RH WIND       PRES   REMARKS
NORTH BEND     CLOUDY    57  55  94 SE3       30.25S
BROOKINGS      SUNNY     50  49  96 CALM      30.24S
ROSEBURG       CLEAR     53  47  79 CALM      30.25R
SEXTON SUMMIT  CLEAR     42  41  96 N5        30.25S
MEDFORD        CLOUDY    59  47  64 NW6       30.24R
$$

ORZ009-041-240900-
COLUMBIA GORGE


CITY           SKY/WX    TMP DP  RH WIND       PRES   REMARKS
TROUTDALE      CLOUDY    60  51  72 S8G17     30.15S
THE DALLES     PTCLDY    59  50  72 W7        30.12R
$$

ORZ029>031-042>050-061>064-240900-
EASTERN OREGON


CITY           SKY/WX    TMP DP  RH WIND       PRES   REMARKS
REDMOND        CLEAR     39  36  89 SE6       30.18S WCI  35
BEND           SUNNY     45  37  76 S3        30.20S
KLAMATH FALLS  CLEAR     50  41  71 W12       30.22R
LAKEVIEW       CLEAR     48  37  66 SW8       30.22S
HERMISTON      CLEAR     54  46  74 SW3       30.12R
PENDLETON      CLEAR     53  45  74 SW7       30.13S
JOHN DAY       CLOUDY    53  43  67 NW8       30.17S
MEACHAM        CLEAR     45  43  93 CALM      30.16S
LA GRANDE      CLOUDY    57  37  47 N12       30.14S
BAKER CITY     CLOUDY    55  42  61 NW17      30.12S
BURNS          CLEAR     51  40  65 W7        30.17R
ROME             N/A     62  37  39 NE6       30.11R
ONTARIO        CLEAR     65  46  50 NW20G29   30.03R
$$




U.S. Dept. of Commerce
NOAA National Weather Service
1325 East West Highway
Silver Spring, MD 20910
E-mail: w-nws.webmaster@noaa.gov
Page last modified: May 16, 2007
NATIONAL WEATHER SERVICE: for Safety, for Work, for Fun - FOR LIFE